Location: La Trinit�
(48.1620°N, 3.4512°W)
Time: 14:58:10
(UTC+00:00)

DELTA 2 R/B (1) - Pass Details

Date: 08 May 2021
Orbit: 790 x 802 km, 39.6° (Epoch: 24 June)

Event Time Altitude Azimuth Distance (km) Brightness Sun altitude
Rises 20:30:06 0° 259° (W) 3,289 7.4 -8.2°
Reaches altitude 10° 20:32:48 10° 250° (WSW) 2,356 6.5 -8.6°
Maximum altitude 20:37:41 32° 188° (S) 1,323 4.5 -9.2°
Enters shadow 20:42:01 13° 130° (SE) 2,172 5.1 -9.8°
